Kokomo, IN

6:37 PM EST on November 14, 2019 (GMT -0500)
Kokomo Municipal

Weather History for KOKK - October, 2019

Change the Weather History Date:

Sunday, October 20, 2019

  Actual Average (WUND) Record (WUND)
Temperature  
Mean Temperature 60 °F -  
Max Temperature 71 °F - - (-1)
Min Temperature 48 °F - - (-1)
Degree Days  
Heating Degree Days 6    
Growing Degree Days 10 (Base 50)    
Moisture  
Dew Point 48 °F    
Average Humidity 68    
Maximum Humidity 86    
Minimum Humidity 47    
Precipitation  
Precipitation 0.00 in - - ()
Sea Level Pressure  
Sea Level Pressure 29.88 in    
Wind  
Wind Speed 2 mph (North)    
Max Wind Speed 7 mph    
Max Gust Speed -    
Visibility 10 miles    
Events      
Averages and records for this station are not official NWS values.
T = Trace of Precipitation, MM = Missing Value Source: NWS Daily Summary

Daily Weather History Graph

Daily Weather History Graph

Search for Another Location

Airport or City:

Astronomy

Oct. 20, 2019 Rise Set
Actual Time 7:00 AM CDT 5:57 PM CDT
Civil Twilight 6:32 AM CDT 6:24 PM CDT
Nautical Twilight 6:00 AM CDT 6:56 PM CDT
Astronomical Twilight 5:29 AM CDT 7:28 PM CDT
Moon 11:04 PM CDT (10/20) 1:28 PM CDT (10/20)
Length of Visible Light 11h 51m
Length of Day
10h 56m
Waning Gibbous, 59% of the Moon is Illuminated
Oct 20
Waning Gibbous
Oct 21
Last Quarter
Oct 27
New
Nov 4
First Quarter
Nov 12
Full

Hourly Weather History & Observations

Time (CDT) Temp. Dew Point Humidity Pressure Visibility Wind Dir Wind Speed Gust Speed Precip Events Conditions
12:56 AM 48.0 °F 43.0 °F 83% 29.79 in 10.0 mi Calm Calm - N/A   Mostly Cloudy
1:56 AM 48.9 °F 43.0 °F 80% 29.78 in 10.0 mi Calm Calm - N/A   Clear
2:56 AM 50.0 °F 44.1 °F 80% 29.80 in 10.0 mi Calm Calm - N/A   Overcast
3:56 AM 51.1 °F 45.0 °F 80% 29.81 in 10.0 mi South 3.5 mph - N/A   Overcast
4:56 AM 51.1 °F 46.0 °F 83% 29.81 in 10.0 mi Calm Calm - N/A   Overcast
5:56 AM 51.1 °F 46.9 °F 86% 29.84 in 10.0 mi Calm Calm - N/A   Overcast
6:56 AM 52.0 °F 46.9 °F 83% 29.85 in 10.0 mi SSE 4.6 mph - N/A   Overcast
7:56 AM 53.1 °F 48.0 °F 83% 29.88 in 10.0 mi Calm Calm - N/A   Overcast
8:56 AM 57.0 °F 48.0 °F 72% 29.90 in 10.0 mi WNW 5.8 mph - N/A   Overcast
9:56 AM 60.1 °F 48.9 °F 67% 29.92 in 10.0 mi NNW 4.6 mph - N/A   Overcast
10:56 AM 62.1 °F 48.9 °F 62% 29.93 in 10.0 mi NE 3.5 mph - N/A   Overcast
11:56 AM 64.9 °F 48.9 °F 56% 29.94 in 10.0 mi NNW 6.9 mph - N/A   Overcast
12:56 PM 68.0 °F 48.9 °F 50% 29.91 in 10.0 mi Calm Calm - N/A   Mostly Cloudy
1:56 PM 69.1 °F 48.9 °F 49% 29.89 in 10.0 mi Variable 3.5 mph - N/A   Clear
2:08 PM 68.0 °F 48.2 °F 49% 29.90 in 1.8 mi Calm Calm - N/A   Haze
2:22 PM 68.0 °F 48.2 °F 49% 29.89 in 10.0 mi Variable 3.5 mph - N/A   Partly Cloudy
2:56 PM 70.0 °F 48.9 °F 47% 29.90 in 10.0 mi Variable 4.6 mph - N/A   Mostly Cloudy
3:56 PM 71.1 °F 50.0 °F 47% 29.90 in 10.0 mi WSW 6.9 mph - N/A   Mostly Cloudy
4:56 PM 68.0 °F 48.9 °F 50% 29.89 in 10.0 mi WNW 3.5 mph - N/A   Partly Cloudy
5:56 PM 62.1 °F 48.9 °F 62% 29.91 in 10.0 mi WNW 5.8 mph - N/A   Clear
6:56 PM 57.0 °F 48.9 °F 74% 29.93 in 10.0 mi Calm Calm - N/A   Scattered Clouds
7:56 PM 53.1 °F 46.9 °F 80% 29.93 in 10.0 mi East 6.9 mph - N/A   Scattered Clouds
8:56 PM 52.0 °F 46.9 °F 83% 29.93 in 10.0 mi Calm Calm - N/A   Clear
9:56 PM 53.1 °F 46.9 °F 80% 29.94 in 10.0 mi Calm Calm - N/A   Overcast
10:56 PM 57.0 °F 48.9 °F 74% 29.93 in 10.0 mi ESE 6.9 mph - N/A   Overcast
11:56 PM 57.0 °F 48.0 °F 72% 29.90 in 10.0 mi East 6.9 mph - N/A   Overcast